Vorticity
2 1 0 0 2 3 4 3 1 0 1 4 8 10 11 11 10 7 4 2 1 2 3 4 4 4 4 5 7 9 11 12 13 13 14 14 15 16 16 15 14 13 12 12 11 9 6 4 3 2 3 4 6 7 9 9 8 7 7 7 7 8 8 7 7 6 6 6 6
4 3 2 1 2 3 4 4 2 0 -1 0 4 7 10 11 10 8 6 3 1 1 2 3 4 3 3 3 3 5 7 9 10 12 13 14 15 17 18 18 17 15 13 11 9 7 5 3 2 3 4 6 7 8 10 11 10 9 9 8 8 8 8 8 7 6 6 6 6
8 6 4 3 2 3 3 4 4 2 -0 -1 1 4 8 10 10 9 8 5 2 1 1 2 3 3 2 2 2 2 3 4 6 7 9 11 13 16 17 18 18 18 17 15 12 8 6 4 3 3 4 6 7 8 9 10 10 10 9 8 8 8 7 7 7 6 6 6 6
11 9 8 6 5 4 4 4 5 4 2 -1 -1 1 5 8 10 10 9 8 5 2 1 1 1 1 2 2 2 2 2 2 2 2 4 6 9 11 14 16 17 17 17 17 15 14 12 9 7 6 6 6 7 8 9 9 10 10 10 8 7 7 7 6 6 6 7 7 8
16 14 13 11 9 7 6 5 6 5 4 1 -1 -0 2 5 8 10 10 10 8 5 3 1 2 1 1 1 1 2 2 2 1 -0 -0 1 3 6 9 11 13 14 16 18 18 18 17 16 13 11 10 9 8 9 9 9 10 10 9 8 7 6 6 6 5 6 6 8 11
19 17 15 15 12 10 8 7 6 5 5 4 2 1 1 3 6 8 10 9 9 8 6 4 3 3 2 1 1 1 2 2 1 -0 -2 -2 -1 1 4 6 8 10 12 14 16 18 20 19 18 17 15 13 12 11 11 11 11 10 9 8 7 6 5 5 4 4 6 9 13
24 21 20 19 17 15 13 11 9 7 6 6 5 3 2 1 4 7 9 9 9 8 7 6 5 4 3 2 2 1 1 1 1 -0 -2 -3 -2 -1 0 2 4 7 8 10 12 15 17 19 20 20 19 17 15 14 12 12 11 10 9 8 7 7 6 6 4 3 4 8 12
28 26 23 22 21 20 19 17 14 12 10 8 7 5 4 2 3 5 7 10 9 8 7 7 6 5 5 4 3 2 2 1 1 0 -1 -2 -3 -3 -2 -1 1 4 6 7 8 10 12 16 18 19 19 19 18 16 14 12 11 10 8 7 7 7 7 6 5 3 3 5 8
28 28 27 25 24 23 22 21 19 17 15 13 11 9 7 5 3 4 6 9 9 9 9 9 8 7 6 6 5 4 3 2 2 1 -0 -1 -2 -3 -3 -3 -2 0 3 4 5 6 7 9 12 15 17 19 19 18 16 14 12 10 8 7 6 6 6 6 5 3 2 2 3
24 26 28 28 27 26 26 25 24 22 20 17 15 13 11 9 6 5 5 7 9 11 12 10 9 9 8 8 7 6 5 5 4 3 2 0 -1 -2 -3 -3 -3 -2 -1 1 3 4 4 5 7 9 12 16 18 19 19 18 15 12 10 8 6 5 5 5 4 3 2 -1 -2
17 21 24 26 27 28 28 28 27 26 24 22 19 17 15 13 11 9 8 7 10 12 13 12 12 11 10 9 9 8 8 7 7 6 5 3 1 -0 -1 -2 -3 -3 -3 -2 -1 1 2 3 4 5 7 10 13 16 18 20 18 16 14 11 8 6 4 3 3 3 2 -0 -3
11 14 18 21 24 26 28 28 28 28 27 26 23 21 19 17 16 14 12 11 11 12 14 17 16 14 12 10 10 9 9 9 9 9 8 7 4 3 1 -0 -1 -2 -3 -3 -3 -2 0 2 2 3 3 5 7 11 14 17 19 19 18 15 12 9 7 4 3 2 2 1 -1
8 10 12 14 17 20 24 26 27 28 28 28 26 25 23 22 21 19 17 15 14 14 16 19 18 16 14 12 10 10 9 10 10 11 10 10 8 6 5 3 2 1 -0 -2 -3 -2 -1 0 1 2 2 2 3 5 8 11 15 17 18 18 16 14 11 9 6 3 2 1 1
8 9 10 11 12 14 17 19 22 25 27 28 28 27 26 25 24 22 21 19 18 17 17 17 17 17 16 14 12 11 10 10 10 11 11 11 10 10 9 7 6 5 3 2 0 -0 -0 -0 0 1 1 1 1 2 3 5 8 12 15 17 17 16 15 14 12 8 5 2 3
7 8 10 11 11 12 12 14 15 18 21 24 26 27 27 26 25 24 23 22 21 19 17 15 15 16 17 17 15 13 12 11 10 10 10 11 12 12 11 10 10 9 7 6 4 3 1 1 0 1 1 1 1 1 1 2 3 6 8 11 14 15 16 17 17 15 11 7 5
7 8 9 11 12 12 12 12 12 13 15 17 20 22 24 25 24 24 23 23 22 21 19 18 16 17 18 19 18 16 15 13 11 10 10 10 11 11 11 12 12 11 10 9 7 6 4 3 2 1 1 1 2 2 2 2 2 2 3 5 8 10 12 14 16 17 16 13 10
7 8 9 11 12 13 13 13 12 12 12 12 14 16 19 21 22 23 23 22 22 21 21 20 19 19 19 18 19 18 17 15 14 12 11 10 10 10 10 11 11 11 11 10 9 7 6 5 4 3 2 2 2 2 2 2 2 2 2 2 3 5 7 9 11 13 14 15 14
8 9 10 11 12 13 13 14 13 13 12 11 11 12 13 15 17 19 21 21 21 21 21 21 22 21 20 19 20 20 19 18 16 14 13 11 11 10 9 9 9 9 9 9 8 8 7 7 6 5 4 4 3 2 2 2 2 2 2 2 2 2 3 4 5 7 8 11 13
9 9 10 11 12 13 13 14 14 14 13 12 11 11 11 11 13 15 16 18 18 19 20 20 21 22 22 22 21 21 21 20 18 17 15 14 12 12 11 10 10 9 8 8 8 8 8 8 8 7 7 6 5 4 4 3 3 3 3 3 3 2 2 2 2 2 3 4 7
10 10 11 11 12 12 13 14 14 14 14 14 13 12 11 11 11 12 13 14 15 16 17 18 19 20 22 22 22 22 22 22 21 19 18 16 14 13 13 15 17 15 12 9 9 9 9 9 9 9 9 9 8 7 7 6 6 5 5 5 5 4 4 4 3 2 1 1 3
10 11 11 11 12 12 13 13 14 14 14 14 14 13 12 11 11 11 11 11 12 13 14 15 16 18 19 21 22 23 23 23 23 22 20 18 16 15 14 15 16 17 17 14 13 12 11 10 10 10 10 10 10 10 9 9 9 8 7 7 6 6 6 6 5 4 3 2 2
11 11 11 12 12 12 13 13 14 14 14 15 14 14 13 13 12 11 11 11 11 11 12 12 13 14 16 18 20 22 23 23 24 23 22 20 19 17 14 10 10 15 20 22 20 17 14 11 10 9 9 10 10 11 11 11 11 11 10 9 8 8 8 9 8 8 6 5 4
11 11 12 12 12 13 13 13 14 14 14 14 14 14 14 14 13 12 11 11 11 11 11 11 11 12 13 15 17 19 21 22 22 23 22 21 20 18 15 11 10 14 20 28 29 28 23 18 13 10 9 8 9 10 11 12 13 13 13 12 11 10 10 11 10 10 10 10 8
11 11 12 12 13 13 14 14 14 14 14 14 14 14 14 14 14 13 12 12 11 11 11 11 11 11 11 12 14 16 18 20 21 21 21 21 20 19 18 15 12 11 14 21 30 36 38 34 28 21 16 11 10 10 11 12 13 14 15 14 14 13 13 12 12 12 12 12 11
11 12 12 13 14 14 14 14 14 14 14 14 14 14 15 15 15 15 14 14 13 12 12 12 12 11 11 11 12 13 15 18 19 20 20 20 19 19 18 17 15 9 4 3 14 26 37 44 42 37 30 22 17 14 13 12 13 14 15 15 15 15 15 14 13 12 12 12 12
11 12 12 13 14 14 15 15 14 14 14 14 14 15 16 17 18 18 17 17 16 15 14 13 13 13 12 12 12 12 14 15 17 19 19 20 19 19 18 18 17 11 2 -10 -7 3 18 33 42 44 40 33 27 22 19 16 15 14 14 14 15 15 15 15 14 13 13 12 12
11 12 12 13 14 15 15 15 14 14 14 14 16 17 19 20 21 21 21 20 19 18 17 16 15 15 14 14 13 13 13 14 16 17 19 19 19 18 18 18 19 16 8 -8 -16 -13 -1 14 29 40 45 43 37 31 27 23 20 18 16 14 13 14 14 15 15 15 14 13 12
11 12 12 13 14 15 15 14 14 14 14 15 17 19 21 23 24 25 25 24 23 22 21 20 18 17 16 16 15 14 14 14 15 16 17 18 18 18 18 18 19 20 16 4 -14 -20 -14 1 15 27 37 44 42 37 32 28 26 23 21 17 14 13 13 14 15 16 16 15 14
11 11 12 13 14 14 14 14 14 14 14 15 17 19 22 24 26 27 27 27 26 25 24 22 21 20 19 18 17 16 16 15 16 16 17 17 17 17 17 17 18 20 20 16 -4 -18 -23 -12 3 14 24 32 36 36 32 28 27 27 26 23 19 15 13 12 14 16 17 18 16
11 11 12 13 14 14 14 14 13 13 13 14 16 19 22 24 26 27 28 28 27 26 25 24 22 21 21 19 18 18 17 16 16 16 17 17 17 17 17 17 18 19 21 23 11 -7 -21 -24 -10 2 10 14 19 22 25 26 28 29 30 28 25 20 16 13 13 14 16 18 18
11 11 12 13 14 14 14 13 12 12 12 13 15 18 20 23 25 26 27 27 27 26 25 24 23 22 21 20 19 18 18 17 17 17 17 17 17 17 17 17 17 18 21 24 23 9 -10 -27 -22 -14 -6 -3 -1 5 12 20 27 32 34 33 30 26 21 16 13 13 15 17 18
10 11 12 13 13 14 13 13 12 12 12 13 14 16 18 21 23 24 25 25 25 24 24 23 22 21 20 20 19 19 18 18 18 17 17 17 17 17 17 17 17 18 20 23 27 21 6 -20 -27 -25 -20 -15 -11 -5 3 11 19 25 30 33 32 30 27 22 17 15 14 16 18
10 11 11 12 13 13 13 12 12 12 12 12 13 14 16 18 19 21 22 23 22 22 22 21 21 20 19 19 18 18 18 18 17 17 17 17 17 17 18 18 18 18 19 21 26 27 18 -4 -22 -28 -26 -20 -12 -4 3 8 11 15 19 24 27 29 29 27 23 20 17 17 18
10 10 11 12 12 13 13 12 12 12 12 12 12 13 14 15 16 18 19 20 20 20 20 20 19 19 18 18 17 17 17 17 17 17 17 17 17 17 18 18 19 19 19 20 24 27 24 11 -9 -22 -27 -24 -15 -5 4 9 8 9 11 14 19 22 25 25 24 22 21 20 21
10 10 10 11 12 13 13 12 12 12 12 12 12 12 12 13 14 15 16 17 17 18 18 18 18 18 17 17 17 17 16 16 16 16 16 16 16 16 17 18 19 20 20 21 22 25 25 21 4 -10 -21 -26 -21 -13 -2 7 9 8 6 7 11 14 17 20 21 21 20 20 22
10 10 10 11 12 12 13 12 12 12 12 12 12 12 12 12 13 13 14 14 15 16 16 16 16 17 17 16 16 16 16 15 15 15 15 15 16 16 17 18 20 21 21 22 23 24 25 25 16 4 -9 -20 -24 -21 -14 -3 5 7 6 4 5 7 10 14 16 18 18 18 20
10 10 10 10 11 12 12 12 12 12 12 12 12 12 12 12 12 12 13 13 14 15 15 15 16 16 16 16 16 15 15 15 15 15 15 16 17 17 18 19 20 21 22 23 23 24 26 27 25 18 8 -4 -15 -20 -21 -16 -6 0 4 5 5 6 7 9 12 14 15 16 17
10 10 10 10 11 11 12 12 12 12 12 13 13 13 12 12 12 12 12 13 14 14 14 15 15 15 15 15 15 14 14 14 14 15 15 16 17 18 19 19 18 18 19 20 22 23 24 26 28 28 24 16 5 -6 -14 -18 -15 -11 -5 0 5 8 10 10 9 10 11 12 14
10 10 10 10 10 11 11 12 12 12 13 13 13 13 13 13 12 12 12 13 13 13 13 13 14 14 14 13 13 13 13 13 14 14 14 14 14 14 15 15 14 14 15 17 19 20 21 23 25 28 29 29 23 14 3 -8 -13 -15 -13 -10 -3 4 10 14 13 11 10 9 10
10 10 10 10 10 11 11 12 12 12 12 13 13 13 13 13 13 12 12 12 12 12 12 12 12 12 12 12 12 11 11 11 11 11 11 10 9 9 9 10 9 10 12 15 17 18 18 19 20 22 24 27 28 26 20 10 -0 -8 -12 -14 -11 -7 1 10 16 18 16 14 11
10 10 10 10 10 10 11 11 12 12 12 12 13 13 13 13 13 12 12 12 11 11 11 11 10 10 10 10 10 10 10 10 9 9 8 8 7 8 9 9 8 8 8 11 13 14 15 15 16 16 17 19 22 24 25 23 16 7 -1 -7 -11 -12 -10 -4 8 17 23 24 21
Height
5618 5619 5620 5622 5623 5625 5627 5628 5629 5631 5633 5635 5638 5640 5641 5643 5645 5646 5648 5650 5651 5653 5654 5656 5658 5659 5660 5662 5663 5665 5666 5667 5668 5670 5671 5672 5674 5675 5677 5679 5680 5682 5684 5685 5687 5688 5690 5692 5693 5695 5696 5697 5699 5700 5702 5704 5705 5706 5707 5709 5710 5712 5714 5715 5716 5717 5718 5719 5720
5615 5616 5617 5619 5620 5621 5623 5625 5626 5628 5629 5631 5634 5636 5638 5640 5641 5643 5645 5646 5648 5649 5651 5653 5655 5656 5658 5660 5661 5662 5664 5665 5666 5667 5668 5670 5671 5673 5675 5676 5677 5679 5680 5682 5684 5685 5687 5688 5690 5691 5693 5694 5695 5697 5699 5700 5702 5703 5705 5706 5707 5709 5710 5712 5713 5714 5715 5716 5717
5612 5613 5614 5615 5617 5618 5620 5621 5623 5624 5625 5627 5629 5631 5634 5636 5638 5640 5641 5643 5644 5646 5648 5650 5651 5653 5655 5657 5658 5660 5661 5663 5664 5665 5666 5667 5668 5670 5672 5673 5675 5676 5678 5679 5681 5682 5684 5685 5686 5688 5690 5691 5692 5694 5695 5697 5699 5700 5701 5703 5704 5706 5707 5709 5710 5711 5712 5713 5714
5609 5610 5611 5613 5614 5615 5616 5618 5619 5621 5622 5623 5625 5627 5629 5632 5634 5636 5638 5639 5640 5642 5644 5646 5648 5650 5652 5654 5655 5657 5658 5660 5661 5662 5663 5665 5666 5667 5669 5670 5672 5673 5675 5676 5678 5679 5680 5682 5683 5685 5686 5688 5689 5691 5692 5694 5696 5697 5699 5700 5701 5703 5704 5705 5706 5708 5709 5710 5710
5606 5607 5608 5609 5610 5611 5612 5614 5615 5617 5619 5620 5621 5623 5625 5627 5630 5632 5634 5635 5637 5639 5640 5642 5644 5646 5648 5650 5652 5654 5655 5656 5658 5660 5661 5662 5663 5664 5666 5667 5669 5670 5671 5673 5675 5676 5677 5679 5680 5681 5683 5685 5686 5688 5689 5691 5693 5694 5695 5697 5698 5700 5700 5702 5703 5705 5705 5706 5707
5602 5603 5604 5605 5607 5608 5609 5610 5612 5613 5615 5616 5618 5619 5620 5622 5625 5627 5630 5631 5633 5634 5636 5638 5640 5643 5645 5647 5648 5650 5651 5653 5655 5656 5658 5659 5660 5661 5662 5664 5665 5666 5668 5670 5671 5673 5674 5675 5677 5678 5680 5681 5683 5684 5686 5687 5689 5691 5692 5694 5695 5696 5697 5699 5700 5701 5702 5703 5705
5599 5600 5601 5602 5603 5604 5605 5607 5608 5609 5610 5612 5614 5615 5616 5617 5620 5622 5625 5626 5628 5630 5632 5635 5636 5638 5640 5642 5644 5646 5648 5650 5651 5653 5654 5655 5656 5658 5659 5660 5662 5663 5665 5666 5668 5669 5671 5673 5674 5675 5676 5677 5679 5681 5682 5684 5686 5687 5689 5690 5691 5693 5694 5695 5696 5698 5699 5700 5701
5595 5596 5597 5598 5599 5600 5602 5603 5604 5605 5607 5609 5610 5611 5612 5613 5615 5616 5619 5621 5624 5626 5628 5630 5632 5634 5636 5638 5640 5642 5644 5646 5647 5649 5650 5651 5652 5654 5655 5657 5659 5660 5661 5663 5664 5666 5667 5669 5670 5671 5672 5674 5675 5677 5679 5680 5682 5684 5685 5687 5688 5689 5691 5692 5693 5694 5695 5697 5698
5592 5593 5594 5595 5595 5597 5598 5599 5600 5602 5603 5605 5605 5606 5608 5609 5610 5611 5614 5616 5619 5621 5623 5625 5627 5629 5631 5633 5635 5637 5639 5641 5643 5645 5646 5647 5649 5650 5652 5654 5655 5657 5658 5659 5661 5662 5664 5665 5666 5667 5669 5670 5672 5674 5675 5677 5679 5680 5682 5683 5685 5686 5687 5688 5690 5691 5692 5693 5694
5588 5589 5590 5591 5592 5593 5594 5595 5596 5598 5599 5600 5601 5602 5603 5605 5606 5607 5609 5610 5613 5616 5619 5621 5622 5624 5626 5629 5630 5632 5635 5636 5638 5640 5642 5643 5645 5646 5648 5650 5651 5653 5654 5656 5657 5659 5660 5661 5663 5664 5665 5667 5669 5670 5671 5673 5675 5676 5678 5679 5681 5683 5684 5685 5686 5687 5688 5690 5691
5585 5586 5587 5588 5588 5589 5590 5591 5592 5594 5595 5596 5597 5598 5599 5601 5602 5603 5605 5606 5608 5611 5614 5616 5617 5619 5621 5623 5625 5627 5629 5631 5634 5635 5637 5639 5640 5642 5643 5645 5647 5648 5650 5652 5654 5655 5657 5658 5660 5661 5662 5663 5665 5666 5668 5669 5671 5672 5674 5675 5677 5679 5680 5681 5683 5684 5685 5686 5687
5582 5583 5584 5584 5585 5586 5587 5588 5589 5590 5590 5591 5592 5594 5595 5597 5598 5600 5601 5602 5604 5606 5608 5610 5611 5613 5615 5616 5619 5621 5624 5626 5629 5630 5632 5634 5635 5637 5639 5640 5642 5644 5646 5648 5650 5651 5653 5654 5656 5657 5659 5660 5661 5662 5664 5665 5667 5668 5670 5671 5673 5675 5676 5678 5679 5680 5682 5683 5684
5580 5580 5581 5581 5582 5583 5583 5584 5585 5585 5587 5588 5589 5590 5592 5593 5595 5596 5597 5599 5600 5601 5603 5604 5605 5607 5609 5611 5613 5615 5618 5621 5623 5625 5627 5629 5630 5632 5634 5636 5637 5639 5641 5643 5645 5647 5649 5650 5652 5654 5655 5656 5658 5659 5660 5661 5663 5665 5666 5668 5669 5671 5672 5674 5675 5676 5678 5680 5680
5577 5577 5578 5578 5579 5580 5580 5581 5581 5582 5583 5584 5585 5586 5588 5589 5590 5591 5593 5594 5596 5597 5598 5599 5600 5602 5604 5605 5608 5610 5613 5615 5617 5619 5621 5623 5625 5627 5629 5631 5633 5635 5636 5638 5640 5642 5644 5645 5647 5649 5651 5653 5654 5655 5656 5658 5659 5660 5662 5663 5665 5667 5668 5669 5670 5672 5674 5676 5677
5574 5575 5575 5575 5576 5576 5577 5578 5578 5579 5580 5580 5581 5583 5584 5585 5586 5587 5589 5590 5591 5593 5594 5594 5595 5597 5598 5601 5603 5605 5608 5610 5612 5614 5616 5618 5620 5622 5624 5626 5628 5630 5631 5632 5635 5637 5639 5640 5642 5644 5646 5648 5650 5651 5652 5654 5655 5657 5658 5660 5661 5662 5664 5665 5666 5668 5670 5672 5673
5571 5572 5572 5573 5573 5574 5574 5575 5575 5575 5576 5577 5578 5579 5580 5581 5582 5583 5584 5586 5587 5588 5589 5590 5591 5592 5594 5596 5598 5600 5602 5604 5606 5609 5610 5612 5614 5616 5618 5620 5623 5625 5626 5627 5629 5631 5633 5635 5637 5639 5641 5643 5645 5646 5648 5650 5651 5653 5654 5655 5657 5658 5660 5661 5662 5664 5666 5667 5669
5569 5569 5570 5570 5570 5571 5571 5571 5572 5572 5573 5574 5574 5575 5576 5577 5578 5579 5580 5581 5583 5584 5585 5586 5587 5588 5590 5592 5593 5595 5597 5599 5601 5604 5605 5607 5609 5610 5613 5615 5617 5619 5620 5622 5624 5626 5628 5630 5632 5634 5636 5638 5639 5641 5643 5645 5646 5648 5650 5651 5653 5654 5655 5657 5658 5660 5662 5663 5665
5565 5566 5567 5567 5567 5568 5568 5569 5569 5569 5570 5570 5571 5572 5572 5573 5574 5575 5576 5577 5579 5580 5581 5582 5583 5584 5586 5587 5589 5590 5592 5595 5597 5599 5601 5602 5604 5605 5607 5610 5611 5613 5615 5617 5619 5621 5623 5625 5626 5629 5630 5632 5634 5636 5638 5640 5642 5644 5645 5647 5649 5650 5651 5653 5655 5656 5658 5660 5661
5563 5563 5564 5564 5565 5565 5565 5565 5566 5566 5567 5567 5568 5568 5569 5570 5570 5571 5572 5573 5575 5576 5577 5578 5579 5580 5581 5583 5584 5586 5588 5590 5592 5594 5596 5598 5600 5601 5603 5605 5606 5608 5610 5612 5614 5615 5618 5620 5621 5623 5625 5627 5629 5630 5632 5635 5636 5639 5640 5642 5644 5645 5647 5649 5650 5652 5654 5655 5657
5560 5560 5560 5561 5561 5562 5562 5562 5563 5563 5564 5564 5565 5565 5565 5566 5567 5568 5569 5570 5571 5572 5573 5574 5575 5576 5577 5579 5580 5581 5583 5585 5587 5589 5591 5593 5595 5597 5599 5600 5602 5603 5604 5606 5608 5610 5613 5615 5617 5618 5620 5622 5623 5625 5627 5629 5631 5633 5635 5637 5639 5641 5642 5644 5645 5648 5650 5651 5653
5557 5557 5557 5558 5558 5558 5559 5559 5560 5560 5560 5561 5561 5562 5562 5563 5563 5564 5565 5566 5567 5568 5569 5570 5571 5572 5573 5574 5576 5577 5579 5580 5582 5585 5587 5589 5591 5593 5595 5597 5599 5599 5599 5601 5603 5605 5608 5610 5612 5614 5615 5617 5618 5620 5622 5624 5626 5628 5630 5632 5634 5635 5637 5639 5641 5643 5645 5647 5648
5554 5555 5555 5555 5555 5555 5555 5556 5556 5557 5557 5558 5558 5559 5559 5560 5560 5560 5561 5562 5563 5564 5565 5566 5567 5568 5569 5570 5572 5573 5575 5576 5578 5580 5582 5584 5586 5588 5590 5593 5596 5595 5595 5596 5598 5600 5603 5605 5607 5609 5610 5612 5613 5615 5617 5619 5620 5622 5624 5626 5628 5630 5632 5634 5636 5638 5640 5642 5644
5551 5552 5552 5552 5552 5552 5552 5553 5553 5553 5554 5554 5555 5555 5556 5556 5556 5557 5557 5558 5559 5560 5561 5562 5563 5564 5565 5566 5568 5569 5570 5572 5573 5575 5577 5579 5581 5584 5586 5589 5592 5593 5593 5593 5594 5595 5597 5600 5602 5603 5605 5607 5609 5610 5612 5614 5615 5617 5619 5620 5623 5625 5627 5629 5631 5633 5635 5637 5639
5549 5549 5549 5549 5549 5549 5549 5550 5550 5550 5550 5551 5551 5552 5552 5553 5553 5554 5554 5555 5555 5556 5557 5558 5559 5560 5562 5563 5564 5565 5566 5568 5569 5571 5572 5575 5577 5579 5581 5584 5587 5590 5592 5593 5592 5592 5593 5594 5595 5597 5599 5601 5604 5605 5607 5609 5611 5612 5614 5615 5617 5619 5621 5624 5626 5628 5630 5632 5634
5546 5546 5546 5546 5546 5546 5546 5546 5547 5547 5547 5547 5548 5548 5549 5549 5549 5550 5550 5551 5551 5552 5553 5554 5555 5557 5558 5559 5560 5561 5563 5564 5565 5567 5568 5570 5572 5575 5577 5579 5582 5585 5589 5592 5592 5591 5590 5590 5590 5591 5593 5596 5599 5601 5602 5604 5606 5607 5609 5610 5612 5614 5616 5618 5620 5623 5625 5627 5629
5543 5543 5543 5543 5543 5544 5544 5544 5544 5544 5544 5544 5544 5545 5545 5545 5545 5546 5546 5547 5548 5548 5549 5550 5551 5553 5554 5555 5556 5558 5559 5560 5562 5563 5565 5567 5569 5570 5573 5575 5577 5580 5584 5588 5590 5591 5590 5588 5586 5586 5588 5590 5594 5596 5598 5600 5601 5603 5604 5605 5607 5609 5611 5614 5616 5618 5620 5622 5624
5540 5540 5540 5540 5540 5540 5540 5541 5541 5541 5541 5541 5541 5541 5541 5541 5542 5542 5543 5543 5544 5545 5545 5546 5548 5549 5550 5551 5553 5554 5555 5557 5558 5560 5561 5563 5565 5567 5569 5571 5573 5575 5579 5582 5586 5588 5589 5588 5585 5583 5583 5585 5588 5591 5593 5595 5596 5598 5600 5601 5603 5605 5607 5609 5611 5613 5615 5617 5619
5537 5538 5538 5538 5538 5538 5538 5538 5538 5538 5538 5538 5538 5538 5538 5538 5538 5538 5539 5540 5540 5541 5542 5543 5544 5545 5547 5548 5550 5551 5552 5554 5555 5557 5558 5560 5561 5563 5565 5567 5569 5571 5574 5577 5580 5583 5585 5587 5585 5583 5581 5581 5583 5586 5588 5590 5591 5593 5595 5596 5598 5600 5602 5604 5606 5608 5610 5612 5614
5535 5535 5535 5535 5535 5535 5535 5535 5535 5535 5535 5535 5535 5535 5535 5535 5535 5535 5535 5536 5537 5538 5539 5540 5541 5542 5544 5545 5546 5548 5549 5551 5552 5554 5555 5556 5558 5560 5561 5563 5565 5568 5570 5573 5575 5578 5581 5583 5584 5583 5581 5580 5580 5581 5583 5585 5586 5587 5589 5591 5593 5595 5597 5600 5601 5603 5605 5607 5609
5532 5532 5532 5532 5532 5532 5532 5532 5532 5532 5532 5532 5532 5532 5532 5532 5532 5532 5532 5533 5534 5535 5535 5537 5538 5540 5541 5542 5544 5545 5547 5548 5549 5551 5552 5554 5555 5557 5558 5560 5562 5564 5566 5569 5572 5574 5576 5579 5580 5581 5580 5580 5579 5579 5580 5580 5581 5582 5584 5586 5588 5590 5593 5595 5597 5599 5601 5603 5604
5530 5530 5530 5530 5530 5530 5530 5530 5530 5530 5529 5529 5529 5529 5529 5529 5529 5529 5530 5530 5531 5532 5533 5534 5535 5537 5538 5539 5541 5542 5544 5545 5546 5548 5550 5551 5552 5554 5555 5557 5559 5561 5563 5565 5568 5570 5572 5574 5575 5577 5577 5577 5578 5578 5578 5578 5579 5579 5580 5581 5583 5585 5588 5590 5593 5595 5596 5598 5600
5527 5527 5527 5527 5527 5527 5527 5527 5527 5527 5527 5527 5527 5526 5526 5526 5527 5527 5527 5528 5529 5530 5531 5532 5533 5534 5535 5537 5538 5540 5541 5542 5544 5545 5546 5548 5549 5551 5552 5554 5556 5558 5560 5562 5564 5566 5568 5570 5571 5572 5573 5573 5574 5575 5576 5577 5577 5577 5578 5578 5579 5581 5583 5586 5588 5590 5592 5594 5595
5525 5525 5525 5525 5525 5525 5525 5525 5525 5525 5525 5525 5525 5525 5525 5525 5525 5525 5525 5526 5527 5528 5529 5530 5531 5532 5534 5535 5536 5537 5539 5540 5541 5542 5544 5545 5546 5548 5550 5551 5553 5555 5556 5558 5560 5562 5564 5565 5566 5567 5568 5569 5570 5572 5573 5575 5575 5575 5575 5575 5576 5577 5579 5581 5584 5586 5588 5590 5591
5523 5523 5523 5523 5523 5523 5523 5523 5523 5523 5523 5523 5523 5522 5523 5523 5523 5523 5524 5525 5525 5526 5527 5528 5529 5530 5531 5533 5534 5535 5536 5537 5539 5540 5541 5542 5544 5545 5547 5548 5550 5551 5553 5555 5556 5558 5560 5561 5562 5563 5564 5565 5567 5569 5570 5571 5572 5573 5572 5572 5573 5574 5575 5577 5580 5582 5584 5586 5587
5521 5520 5520 5520 5520 5520 5520 5520 5520 5521 5521 5521 5521 5521 5521 5521 5521 5522 5523 5523 5524 5525 5525 5526 5527 5528 5529 5530 5532 5533 5534 5535 5536 5537 5539 5540 5541 5542 5544 5545 5546 5548 5550 5551 5553 5555 5556 5558 5559 5560 5560 5562 5563 5565 5567 5568 5570 5570 5570 5570 5570 5571 5572 5574 5576 5578 5580 5581 5583
5519 5519 5519 5519 5519 5519 5519 5519 5519 5519 5519 5519 5519 5519 5519 5520 5520 5520 5521 5522 5522 5523 5524 5525 5526 5527 5528 5529 5530 5531 5532 5533 5534 5535 5536 5537 5539 5540 5541 5542 5544 5545 5546 5548 5549 5551 5553 5555 5556 5557 5558 5559 5560 5561 5563 5565 5566 5567 5567 5568 5568 5568 5569 5571 5572 5574 5576 5577 5579
5517 5517 5517 5517 5517 5517 5517 5517 5517 5517 5517 5517 5517 5517 5518 5518 5519 5519 5519 5520 5521 5522 5522 5523 5524 5525 5526 5527 5528 5529 5530 5531 5532 5533 5534 5535 5536 5538 5539 5540 5541 5542 5543 5545 5546 5548 5550 5551 5553 5555 5555 5556 5557 5558 5560 5561 5563 5564 5565 5565 5565 5566 5566 5568 5569 5570 5572 5573 5575
5515 5515 5515 5515 5515 5515 5515 5515 5515 5515 5515 5515 5516 5516 5516 5517 5517 5517 5518 5519 5520 5520 5521 5522 5523 5524 5525 5525 5526 5527 5528 5529 5530 5531 5532 5533 5534 5535 5537 5538 5540 5540 5541 5542 5543 5545 5546 5548 5550 5551 5553 5554 5555 5556 5557 5558 5559 5560 5561 5562 5563 5563 5564 5565 5566 5567 5569 5570 5571
5513 5513 5513 5513 5513 5513 5513 5513 5514 5514 5514 5514 5514 5515 5515 5515 5515 5516 5516 5517 5518 5519 5520 5520 5521 5522 5523 5524 5525 5525 5526 5527 5528 5530 5530 5532 5532 5534 5535 5536 5537 5539 5539 5540 5541 5542 5544 5545 5547 5548 5550 5551 5552 5553 5554 5555 5556 5557 5558 5559 5560 5561 5561 5562 5564 5565 5565 5566 5567
5511 5511 5511 5511 5511 5512 5512 5512 5512 5512 5512 5513 5513 5513 5514 5514 5514 5515 5515 5516 5516 5517 5518 5519 5520 5520 5521 5522 5523 5524 5525 5526 5527 5528 5529 5530 5531 5532 5533 5534 5534 5535 5536 5537 5539 5540 5541 5542 5544 5545 5546 5548 5549 5550 5551 5552 5553 5554 5555 5555 5557 5558 5559 5560 5561 5562 5563 5563 5564
5510 5510 5510 5510 5510 5510 5510 5510 5510 5510 5511 5511 5511 5512 5512 5512 5513 5513 5514 5515 5515 5516 5517 5517 5518 5519 5520 5521 5522 5523 5524 5525 5525 5526 5527 5528 5529 5530 5531 5531 5532 5533 5534 5535 5536 5537 5538 5540 5541 5542 5543 5545 5546 5547 5548 5549 5550 5551 5552 5553 5554 5555 5556 5557 5558 5559 5560 5560 5561